TimeCDT,TemperatureF,Dew PointF,Humidity,Sea Level PressureIn,VisibilityMPH,Wind Direction,Wind SpeedMPH,Gust SpeedMPH,PrecipitationIn,Events,Conditions,WindDirDegrees,DateUTC
12:53 AM,73.9,64.0,71,30.02,10.0,South,11.5,-,N/A,,Partly Cloudy,170,2013-06-21 05:53:00
1:51 AM,73.4,64.4,73,30.05,10.0,SSE,9.2,-,N/A,Thunderstorm,Thunderstorm,160,2013-06-21 06:51:00
1:53 AM,73.9,64.0,71,30.02,10.0,SSE,9.2,-,N/A,Thunderstorm,Thunderstorm,160,2013-06-21 06:53:00
2:10 AM,75.2,64.4,69,30.05,10.0,SSE,9.2,-,N/A,,Overcast,150,2013-06-21 07:10:00
2:53 AM,73.0,64.9,76,30.00,10.0,South,15.0,-,0.00,,Scattered Clouds,170,2013-06-21 07:53:00
3:53 AM,73.0,64.9,76,29.98,10.0,South,15.0,-,N/A,,Clear,180,2013-06-21 08:53:00
4:53 AM,73.9,66.0,76,29.98,10.0,South,15.0,-,N/A,,Mostly Cloudy,180,2013-06-21 09:53:00
5:53 AM,73.9,66.0,76,29.96,10.0,South,17.3,24.2,N/A,,Partly Cloudy,180,2013-06-21 10:53:00
6:53 AM,73.0,66.0,79,29.94,10.0,South,19.6,25.3,N/A,,Clear,180,2013-06-21 11:53:00
7:53 AM,73.0,66.9,81,29.95,10.0,South,13.8,-,N/A,,Clear,190,2013-06-21 12:53:00
8:53 AM,71.1,64.0,78,30.12,10.0,North,24.2,38.0,N/A,,Scattered Clouds,360,2013-06-21 13:53:00
9:05 AM,69.8,60.8,73,30.13,10.0,NNE,18.4,29.9,N/A,,Mostly Cloudy,30,2013-06-21 14:05:00
9:53 AM,66.0,63.0,90,30.09,9.0,NNE,11.5,20.7,0.00,Rain,Light Rain,30,2013-06-21 14:53:00
10:39 AM,64.4,64.4,100,30.11,9.0,NNE,8.1,-,0.01,Rain-Thunderstorm,Light Thunderstorms and Rain,30,2013-06-21 15:39:00
10:53 AM,64.9,64.0,97,30.10,10.0,North,5.8,-,0.02,Rain-Thunderstorm,Light Thunderstorms and Rain,10,2013-06-21 15:53:00
11:12 AM,64.4,64.4,100,30.15,1.5,WNW,8.1,-,0.00,Rain-Thunderstorm,Heavy Thunderstorms and Rain,300,2013-06-21 16:12:00
11:26 AM,64.4,64.4,100,30.15,3.0,NW,3.5,-,0.14,Rain-Thunderstorm,Light Thunderstorms and Rain,320,2013-06-21 16:26:00
11:53 AM,64.9,64.0,97,30.09,6.0,East,10.4,-,0.19,Rain-Thunderstorm,Thunderstorms and Rain,80,2013-06-21 16:53:00
12:14 PM,64.4,64.4,100,30.06,10.0,SE,16.1,23.0,0.03,,Overcast,130,2013-06-21 17:14:00
12:53 PM,66.0,63.0,90,29.97,10.0,SE,16.1,21.9,0.03,,Mostly Cloudy,130,2013-06-21 17:53:00
1:53 PM,69.1,64.9,87,29.93,10.0,South,21.9,33.4,N/A,,Clear,180,2013-06-21 18:53:00
2:53 PM,72.0,66.0,81,29.92,10.0,South,18.4,26.5,N/A,,Clear,180,2013-06-21 19:53:00
3:53 PM,73.9,66.0,76,29.95,10.0,South,13.8,21.9,N/A,,Clear,170,2013-06-21 20:53:00
4:53 PM,75.0,66.0,73,29.96,10.0,South,15.0,-,N/A,,Clear,170,2013-06-21 21:53:00
5:53 PM,75.0,66.0,73,29.93,10.0,SSE,12.7,21.9,N/A,,Clear,160,2013-06-21 22:53:00
6:53 PM,75.0,66.0,73,29.95,10.0,SSE,10.4,-,N/A,,Clear,160,2013-06-21 23:53:00
7:53 PM,73.9,66.0,76,29.97,10.0,South,6.9,-,N/A,,Clear,170,2013-06-22 00:53:00
8:53 PM,72.0,66.9,84,29.99,10.0,East,5.8,-,N/A,,Overcast,100,2013-06-22 01:53:00
9:53 PM,-9999,-9999,N/A,30.02,-9999.0,North,-9999.0,-,N/A,,Unknown,0,2013-06-22 02:53:00
10:53 PM,-9999,-9999,N/A,30.02,-9999.0,North,-9999.0,-,N/A,,Unknown,0,2013-06-22 03:53:00
11:53 PM,-9999,-9999,N/A,30.00,-9999.0,North,-9999.0,-,N/A,,Unknown,0,2013-06-22 04:53:00